Charles City, IA

6:43 AM CST on November 20, 2017 (GMT -0600)
Charles City Municipal

Weather History for KCCY - October, 2012

Change the Weather History Date:

Friday, October 26, 2012

  Actual Average Record
Temperature  
Mean Temperature 36 °F -  
Max Temperature 41 °F 58 °F 81 °F (1955)
Min Temperature 30 °F 35 °F 17 °F (1988)
Degree Days  
Heating Degree Days 30    
Moisture  
Dew Point 27 °F    
Average Humidity 69    
Maximum Humidity 86    
Minimum Humidity 57    
Precipitation  
Precipitation 0.00 in - - ()
Sea Level Pressure  
Sea Level Pressure 30.35 in    
Wind  
Wind Speed 9 mph (WNW)    
Max Wind Speed 16 mph    
Max Gust Speed 23 mph    
Visibility 10 miles    
Events      
Averages and records for this station are not official NWS values.
T = Trace of Precipitation, MM = Missing Value Source: NWS Daily Summary

Daily Weather History Graph

Daily Weather History Graph

Search for Another Location

Airport or City:

Trip Planner

Search our weather history database for the weather conditions in past years. The results will help you decide how hot, cold, wet, or windy it might be!

Date:

Astronomy

Oct. 26, 2012 Rise Set
Actual Time 7:38 AM CDT 6:09 PM CDT
Civil Twilight 7:08 AM CDT 6:39 PM CDT
Nautical Twilight 6:35 AM CDT 7:12 PM CDT
Astronomical Twilight 6:02 AM CDT 7:45 PM CDT
Moon 4:29 PM CDT (10/26) 4:31 AM CDT (10/26)
Length of Visible Light 11h 30m
Length of Day
10h 31m
Waxing Gibbous, 91% of the Moon is Illuminated
Oct 26
Waxing Gibbous
Oct 29
Full
Nov 6
Last Quarter
Nov 13
New
Nov 20
First Quarter

Hourly Weather History & Observations

Time (CDT) Temp. Windchill Dew Point Humidity Pressure Visibility Wind Dir Wind Speed Gust Speed Precip Events Conditions
12:35 AM 35.6 °F 28.6 °F 28.4 °F 75% 30.22 in 10.0 mi WNW 9.2 mph - N/A   Scattered Clouds
12:55 AM 35.6 °F 28.6 °F 28.4 °F 75% 30.22 in 10.0 mi WNW 9.2 mph - N/A   Scattered Clouds
1:15 AM 35.6 °F 27.5 °F 28.4 °F 75% 30.22 in 10.0 mi NW 11.5 mph - N/A   Mostly Cloudy
1:35 AM 35.6 °F 27.1 °F 28.4 °F 75% 30.23 in 10.0 mi NW 12.7 mph - N/A   Scattered Clouds
1:55 AM 35.6 °F 28.6 °F 28.4 °F 75% 30.23 in 10.0 mi NW 9.2 mph - N/A   Clear
2:15 AM 35.6 °F 29.2 °F 26.6 °F 70% 30.23 in 10.0 mi WNW 8.1 mph - N/A   Scattered Clouds
2:35 AM 35.6 °F 29.9 °F 28.4 °F 75% 30.24 in 10.0 mi WNW 6.9 mph - N/A   Mostly Cloudy
2:55 AM 35.6 °F 29.9 °F 28.4 °F 75% 30.24 in 10.0 mi WNW 6.9 mph - N/A   Mostly Cloudy
3:15 AM 33.8 °F 28.6 °F 26.6 °F 75% 30.24 in 10.0 mi West 5.8 mph - N/A   Scattered Clouds
3:35 AM 33.8 °F 28.6 °F 26.6 °F 75% 30.24 in 10.0 mi WNW 5.8 mph - N/A   Clear
3:55 AM 33.8 °F 28.6 °F 28.4 °F 81% 30.25 in 10.0 mi West 5.8 mph - N/A   Clear
4:15 AM 33.8 °F 29.6 °F 26.6 °F 75% 30.25 in 10.0 mi West 4.6 mph - N/A   Clear
4:35 AM 32.0 °F 27.5 °F 26.6 °F 80% 30.26 in 10.0 mi West 4.6 mph - N/A   Clear
4:55 AM 30.2 °F 23.4 °F 26.6 °F 86% 30.26 in 10.0 mi West 6.9 mph - N/A   Clear
5:15 AM 32.0 °F 25.6 °F 26.6 °F 80% 30.27 in 10.0 mi West 6.9 mph - N/A   Clear
5:35 AM 32.0 °F 25.6 °F 26.6 °F 80% 30.28 in 10.0 mi West 6.9 mph - N/A   Clear
5:55 AM 32.0 °F 24.8 °F 26.6 °F 80% 30.30 in 10.0 mi West 8.1 mph - N/A   Clear
6:15 AM 32.0 °F 26.4 °F 26.6 °F 80% 30.31 in 10.0 mi West 5.8 mph - N/A   Clear
6:35 AM 30.2 °F 24.3 °F 26.6 °F 86% 30.33 in 10.0 mi WSW 5.8 mph - N/A   Clear
6:55 AM 32.0 °F 25.6 °F 26.6 °F 80% 30.35 in 10.0 mi West 6.9 mph - N/A   Clear
7:15 AM 32.0 °F 25.6 °F 26.6 °F 80% 30.35 in 10.0 mi West 6.9 mph - N/A   Clear
7:55 AM 32.0 °F 24.8 °F 26.6 °F 80% 30.35 in 10.0 mi WNW 8.1 mph - N/A   Clear
8:35 AM 33.8 °F 27.0 °F 28.4 °F 81% 30.38 in 10.0 mi West 8.1 mph - N/A   Clear
8:55 AM 35.6 °F 28.0 °F 28.4 °F 75% 30.38 in 10.0 mi WNW 10.4 mph - N/A   Clear
9:15 AM 35.6 °F 27.5 °F 28.4 °F 75% 30.39 in 10.0 mi WNW 11.5 mph - N/A   Clear
9:35 AM 37.4 °F 28.9 °F 28.4 °F 70% 30.39 in 10.0 mi WNW 13.8 mph 17.3 mph N/A   Clear
9:55 AM 37.4 °F 29.8 °F 28.4 °F 70% 30.40 in 10.0 mi NW 11.5 mph 20.7 mph N/A   Clear
10:15 AM 39.2 °F 30.5 °F 28.4 °F 65% 30.40 in 10.0 mi NW 16.1 mph 21.9 mph N/A   Clear
10:35 AM 39.2 °F 30.8 °F 28.4 °F 65% 30.40 in 10.0 mi NNW 15.0 mph 18.4 mph N/A   Clear
10:55 AM 39.2 °F 30.5 °F 28.4 °F 65% 30.40 in 10.0 mi NW 16.1 mph 20.7 mph N/A   Scattered Clouds
11:15 AM 39.2 °F 30.8 °F 26.6 °F 61% 30.40 in 10.0 mi NW 15.0 mph 23.0 mph N/A   Scattered Clouds
11:35 AM 39.2 °F 30.5 °F 26.6 °F 61% 30.40 in 10.0 mi NW 16.1 mph 21.9 mph N/A   Overcast
11:55 AM 41.0 °F 33.9 °F 26.6 °F 57% 30.40 in 10.0 mi NNW 12.7 mph 19.6 mph N/A   Overcast
12:15 PM 41.0 °F 33.9 °F 26.6 °F 57% 30.40 in 10.0 mi NNW 12.7 mph 20.7 mph N/A   Overcast
12:35 PM 41.0 °F 33.5 °F 26.6 °F 57% 30.39 in 10.0 mi NNW 13.8 mph 20.7 mph N/A   Overcast
12:55 PM 41.0 °F 33.5 °F 26.6 °F 57% 30.39 in 10.0 mi WNW 13.8 mph 20.7 mph N/A   Overcast
1:15 PM 41.0 °F 33.5 °F 26.6 °F 57% 30.38 in 10.0 mi WNW 13.8 mph 21.9 mph N/A   Overcast
1:35 PM 41.0 °F 33.5 °F 26.6 °F 57% 30.38 in 10.0 mi NW 13.8 mph 18.4 mph N/A   Overcast
1:55 PM 41.0 °F 34.3 °F 28.4 °F 61% 30.38 in 10.0 mi NW 11.5 mph - N/A   Overcast
2:15 PM 39.2 °F 31.6 °F 26.6 °F 61% 30.38 in 10.0 mi NW 12.7 mph 20.7 mph N/A   Overcast
2:35 PM 39.2 °F 32.0 °F 26.6 °F 61% 30.38 in 10.0 mi WNW 11.5 mph - N/A   Overcast
2:55 PM 41.0 °F 33.5 °F 26.6 °F 57% 30.38 in 10.0 mi WNW 13.8 mph - N/A   Overcast
3:15 PM 39.2 °F 32.0 °F 28.4 °F 65% 30.38 in 10.0 mi WNW 11.5 mph - N/A   Overcast
3:35 PM 39.2 °F 30.5 °F 26.6 °F 61% 30.38 in 10.0 mi West 16.1 mph - N/A   Overcast
3:55 PM 39.2 °F 32.0 °F 26.6 °F 61% 30.38 in 10.0 mi WNW 11.5 mph - N/A   Overcast
4:15 PM 39.2 °F 30.8 °F 26.6 °F 61% 30.38 in 10.0 mi WNW 15.0 mph 20.7 mph N/A   Overcast
4:35 PM 39.2 °F 30.5 °F 26.6 °F 61% 30.38 in 10.0 mi WNW 16.1 mph - N/A   Overcast
4:55 PM 39.2 °F 32.0 °F 26.6 °F 61% 30.38 in 10.0 mi WNW 11.5 mph - N/A   Overcast
5:15 PM 39.2 °F 32.0 °F 26.6 °F 61% 30.38 in 10.0 mi WNW 11.5 mph - N/A   Overcast
5:35 PM 39.2 °F 33.0 °F 26.6 °F 61% 30.37 in 10.0 mi NW 9.2 mph - N/A   Overcast
5:55 PM 39.2 °F 33.6 °F 26.6 °F 61% 30.37 in 10.0 mi WNW 8.1 mph - N/A   Overcast
6:15 PM 39.2 °F 33.0 °F 26.6 °F 61% 30.38 in 10.0 mi WNW 9.2 mph - N/A   Overcast
6:35 PM 37.4 °F 30.8 °F 26.6 °F 65% 30.38 in 10.0 mi WNW 9.2 mph - N/A   Overcast
6:55 PM 37.4 °F 29.8 °F 26.6 °F 65% 30.38 in 10.0 mi WNW 11.5 mph - N/A   Overcast
7:15 PM 37.4 °F 31.4 °F 26.6 °F 65% 30.38 in 10.0 mi NW 8.1 mph - N/A   Overcast
7:35 PM 37.4 °F 31.4 °F 24.8 °F 60% 30.38 in 10.0 mi WNW 8.1 mph - N/A   Overcast
8:15 PM 37.4 °F 31.4 °F 26.6 °F 65% 30.38 in 10.0 mi WNW 8.1 mph - N/A   Overcast
8:35 PM 37.4 °F 31.4 °F 26.6 °F 65% 30.38 in 10.0 mi WNW 8.1 mph - N/A   Overcast
9:15 PM 37.4 °F 32.8 °F 26.6 °F 65% 30.38 in 10.0 mi WNW 5.8 mph - N/A   Overcast
9:35 PM 35.6 °F 31.7 °F 26.6 °F 70% 30.38 in 10.0 mi WNW 4.6 mph - N/A   Mostly Cloudy
9:55 PM 33.8 °F 30.8 °F 26.6 °F 75% 30.38 in 10.0 mi West 3.5 mph - N/A   Mostly Cloudy
10:15 PM 33.8 °F 30.8 °F 26.6 °F 75% 30.38 in 10.0 mi West 3.5 mph - N/A   Mostly Cloudy
10:35 PM 33.8 °F 30.8 °F 26.6 °F 75% 30.38 in 10.0 mi West 3.5 mph - N/A   Scattered Clouds
10:55 PM 33.8 °F 30.8 °F 26.6 °F 75% 30.38 in 10.0 mi West 3.5 mph - N/A   Scattered Clouds
11:15 PM 32.0 °F 27.5 °F 26.6 °F 80% 30.38 in 10.0 mi West 4.6 mph - N/A   Mostly Cloudy
11:35 PM 33.8 °F 28.6 °F 26.6 °F 75% 30.38 in 10.0 mi West 5.8 mph - N/A   Overcast
11:55 PM 32.0 °F 27.5 °F 26.6 °F 80% 30.37 in 10.0 mi West 4.6 mph - N/A   Overcast